W5ITZ Weather Reports


time (UTC)temp
C
wind
direction
speed
KPH
gust
KPH
rain 1hr
cm
rain 24hr
cm
rain mn
cm
humidity
%
barometer
mb
20260504120300 15 102 3.2 3.2 0.00 0.00 0.00 88 1015.6
20260504110224 15 123 4.8 4.8 0.00 0.00 0.00 88 1015.2
20260504100148 15 123 3.2 3.2 0.00 0.00 0.00 86 1015.7
20260504090110 15 107 3.2 3.2 0.00 0.00 0.00 84 1016.0
20260504081541 15 108 4.8 4.8 0.00 0.00 0.00 85 1016.2
20260504081037 15 118 4.8 4.8 0.00 0.00 0.00 84 1016.3
20260504080533 15 127 3.2 3.2 0.00 0.00 0.00 83 1016.6
20260504050346 16 123 4.8 4.8 0.00 0.00 0.00 81 1018.6
20260504045843 16 129 4.8 4.8 0.00 0.00 0.00 82 1018.8
20260504045338 16 130 3.2 3.2 0.00 0.00 0.00 81 1018.8
20260504044835 16 142 4.8 3.2 0.00 0.00 0.00 81 1018.8
20260504044333 16 134 4.8 4.8 0.00 0.00 0.00 81 1019.1
20260504043830 16 136 4.8 4.8 0.00 0.00 0.00 82 1019.0
20260504043327 16 149 4.8 4.8 0.00 0.00 0.00 81 1019.0
20260504042824 16 155 4.8 3.2 0.00 0.00 0.00 80 1018.8
20260504042320 16 131 3.2 3.2 0.00 0.00 0.00 79 1018.9
20260504041817 16 123 3.2 4.8 0.00 0.00 0.00 79 1018.8
20260504041313 16 129 4.8 4.8 0.00 0.00 0.00 78 1018.9
20260504040809 17 124 4.8 3.2 0.00 0.00 0.00 78 1018.9
20260504040307 17 121 4.8 4.8 0.00 0.00 0.00 77 1019.1
20260504035803 17 125 4.8 4.8 0.00 0.00 0.00 77 1018.9
20260504035300 17 121 4.8 4.8 0.00 0.00 0.00 76 1018.7
20260504034757 17 121 4.8 4.8 0.00 0.00 0.00 76 1018.6
20260504034255 17 112 4.8 4.8 0.00 0.00 0.00 78 1018.9
20260504033752 17 136 3.2 3.2 0.00 0.00 0.00 78 1018.8
20260504033249 17 127 3.2 3.2 0.00 0.00 0.00 76 1018.8
20260504032746 17 130 4.8 4.8 0.00 0.00 0.00 75 1018.9
20260504032243 17 118 4.8 3.2 0.00 0.00 0.00 75 1018.9
20260504031740 17 143 4.8 4.8 0.00 0.00 0.00 76 1018.8
20260504031238 17 171 4.8 4.8 0.00 0.00 0.00 75 1019.0
20260504030733 17 163 4.8 3.2 0.00 0.00 0.00 75 1018.9
20260504030230 17 147 4.8 4.8 0.00 0.00 0.00 75 1018.7
20260504025727 17 141 4.8 4.8 0.00 0.00 0.00 75 1018.7
20260504025224 17 154 4.8 4.8 0.00 0.00 0.00 74 1018.5
20260504024721 17 154 4.8 4.8 0.00 0.00 0.00 74 1018.4
20260504024217 17 144 4.8 4.8 0.00 0.00 0.00 73 1018.4
20260504023714 17 148 6.4 8.0 0.00 0.00 0.00 73 1018.5
20260504023210 18 154 4.8 3.2 0.00 0.00 0.00 72 1018.5
20260504022706 18 146 6.4 8.0 0.00 0.00 0.00 72 1018.4
20260504022202 18 139 6.4 8.0 0.00 0.00 0.00 72 1018.3
20260504021700 18 139 8.0 8.0 0.00 0.00 0.00 71 1018.2
20260504021156 18 150 4.8 4.8 0.00 0.00 0.00 71 1018.3
20260504020654 18 152 4.8 4.8 0.00 0.00 0.00 71 1018.4
20260504020149 18 156 4.8 4.8 0.00 0.00 0.00 70 1018.1
20260504015647 18 156 4.8 4.8 0.00 0.00 0.00 69 1018.1
20260504015143 18 149 4.8 4.8 0.00 0.00 0.00 70 1018.3
20260504014639 18 162 4.8 4.8 0.00 0.00 0.00 69 1018.5
20260504014136 18 156 4.8 4.8 0.00 0.00 0.00 69 1018.5
20260504013634 19 160 4.8 4.8 0.00 0.00 0.00 68 1018.3
20260504013131 19 159 6.4 4.8 0.00 0.00 0.00 67 1018.3
20260504012628 19 161 6.4 8.0 0.00 0.00 0.00 66 1018.2
20260504012126 20 162 6.4 8.0 0.00 0.00 0.00 64 1018.4
20260504011622 20 170 6.4 8.0 0.00 0.00 0.00 62 1018.4
20260504011119 20 167 9.7 11.3 0.00 0.00 0.00 60 1018.4
20260504010614 20 172 9.7 11.3 0.00 0.00 0.00 59 1018.4
20260504010110 20 170 9.7 11.3 0.00 0.00 0.00 58 1018.4
20260504005608 21 171 9.7 11.3 0.00 0.00 0.00 57 1018.4
20260504005104 21 169 9.7 9.7 0.00 0.00 0.00 56 1018.4
20260504004603 21 172 12.9 12.9 0.00 0.00 0.00 55 1018.2
20260504004059 21 176 11.3 14.5 0.00 0.00 0.00 55 1018.3
20260504003556 21 180 9.7 12.9 0.00 0.00 0.00 54 1018.1
20260504003052 22 180 12.9 12.9 0.00 0.00 0.00 53 1018.4
20260504002549 22 175 17.7 22.5 0.00 0.00 0.00 51 1018.4
20260504002047 22 170 9.7 9.7 0.00 0.00 0.00 53 1018.4
20260504001544 22 178 11.3 14.5 0.00 0.00 0.00 51 1018.0
20260504001040 22 171 14.5 16.1 0.00 0.00 0.00 50 1018.1
20260504000538 22 152 19.3 22.5 0.00 0.00 0.00 50 1018.2
20260504000035 22 176 14.5 17.7 0.00 0.00 0.00 50 1018.2
20260503235533 23 199 19.3 22.5 0.00 0.00 0.00 49 1018.5
20260503235029 23 183 16.1 16.1 0.00 0.00 0.00 49 1018.4
20260503234527 23 155 16.1 16.1 0.00 0.00 0.00 50 1018.4
20260503234026 23 176 16.1 17.7 0.00 0.00 0.00 48 1018.3
20260503233521 23 162 11.3 12.9 0.00 0.00 0.00 50 1018.3
20260503233017 23 164 16.1 17.7 0.00 0.00 0.00 47 1018.3
20260503232514 23 163 20.9 24.1 0.00 0.00 0.00 48 1018.6
20260503232012 23 146 19.3 20.9 0.00 0.00 0.00 47 1018.5
20260503231510 23 167 19.3 22.5 0.00 0.00 0.00 48 1018.6
20260503231006 23 158 14.5 16.1 0.00 0.00 0.00 48 1018.6
20260503230503 23 158 14.5 16.1 0.00 0.00 0.00 47 1018.4
20260503230000 24 169 16.1 16.1 0.00 0.00 0.00 45 1018.6
20260503225457 24 187 11.3 12.9 0.00 0.00 0.00 48 1018.8
20260503224952 24 159 12.9 14.5 0.00 0.00 0.00 48 1018.5
20260503224450 24 142 22.5 25.7 0.00 0.00 0.00 46 1018.6
20260503223947 24 152 14.5 16.1 0.00 0.00 0.00 44 1018.7
20260503223445 24 182 14.5 16.1 0.00 0.00 0.00 48 1018.9
20260503222941 25 168 20.9 24.1 0.00 0.00 0.00 45 1018.8
20260503222439 24 140 14.5 14.5 0.00 0.00 0.00 48 1018.7
20260503221937 24 191 12.9 14.5 0.00 0.00 0.00 49 1018.9
20260503221435 25 172 22.5 25.7 0.00 0.00 0.00 48 1018.9
20260503220932 25 164 17.7 17.7 0.00 0.00 0.00 49 1018.8
20260503220428 25 162 16.1 16.1 0.00 0.00 0.00 47 1018.9
20260503215925 25 158 19.3 20.9 0.00 0.00 0.00 48 1018.9
20260503215422 25 189 16.1 16.1 0.00 0.00 0.00 46 1018.7
20260503214920 25 199 19.3 22.5 0.00 0.00 0.00 47 1019.1
20260503214417 25 178 22.5 25.7 0.00 0.00 0.00 47 1018.9
20260503213914 25 187 20.9 22.5 0.00 0.00 0.00 46 1019.3
20260503213412 25 185 19.3 20.9 0.00 0.00 0.00 48 1019.5
20260503212908 25 161 11.3 16.1 0.00 0.00 0.00 53 1019.4
20260503212406 25 173 16.1 17.7 0.00 0.00 0.00 49 1019.5
20260503211903 25 203 12.9 14.5 0.00 0.00 0.00 49 1019.4
20260503211400 25 203 19.3 22.5 0.00 0.00 0.00 49 1019.7
20260503210855 25 149 14.5 17.7 0.00 0.00 0.00 47 1019.6
20260503210353 25 192 22.5 29.0 0.00 0.00 0.00 46 1019.6
20260503205847 26 207 22.5 24.1 0.00 0.00 0.00 45 1019.9
20260503205344 26 179 17.7 17.7 0.00 0.00 0.00 45 1019.7
20260503204841 26 217 12.9 14.5 0.00 0.00 0.00 45 1019.8
20260503204338 26 163 17.7 20.9 0.00 0.00 0.00 44 1019.9
20260503203835 26 197 9.7 11.3 0.00 0.00 0.00 40 1020.0
20260503203333 25 130 8.0 9.7 0.00 0.00 0.00 39 1020.0
20260503202829 25 118 17.7 17.7 0.00 0.00 0.00 39 1020.3
20260503202328 26 174 11.3 11.3 0.00 0.00 0.00 39 1020.0
20260503201826 26 120 14.5 16.1 0.00 0.00 0.00 38 1020.1
20260503201322 26 185 11.3 12.9 0.00 0.00 0.00 38 1020.3
20260503200820 26 194 1.6 1.6 0.00 0.00 0.00 35 1020.2
20260503200316 26 87 3.2 3.2 0.00 0.00 0.00 40 1020.2
20260503195813 26 112 8.0 9.7 0.00 0.00 0.00 35 1020.6
20260503195309 26 132 12.9 14.5 0.00 0.00 0.00 34 1020.7
20260503194807 26 124 4.8 4.8 0.00 0.00 0.00 36 1020.8
20260503194303 26 154 9.7 11.3 0.00 0.00 0.00 36 1020.9
20260503193759 26 182 8.0 9.7 0.00 0.00 0.00 35 1020.5
20260503193255 26 157 3.2 3.2 0.00 0.00 0.00 36 1020.9
20260503192751 26 124 6.4 8.0 0.00 0.00 0.00 35 1021.0
20260503192246 26 123 17.7 20.9 0.00 0.00 0.00 35 1021.0
20260503191743 26 122 9.7 12.9 0.00 0.00 0.00 38 1020.9
20260503191240 26 275 1.6 1.6 0.00 0.00 0.00 32 1021.2
20260503190737 26 103 8.0 9.7 0.00 0.00 0.00 34 1021.3
20260503190234 26 101 4.8 4.8 0.00 0.00 0.00 33 1021.3
20260503185731 26 117 11.3 12.9 0.00 0.00 0.00 32 1021.4
20260503185226 25 238 1.6 1.6 0.00 0.00 0.00 33 1021.3
20260503184721 25 148 8.0 9.7 0.00 0.00 0.00 32 1021.6
20260503184218 25 160 17.7 17.7 0.00 0.00 0.00 33 1021.5
20260503183714 26 147 4.8 4.8 0.00 0.00 0.00 34 1021.5
20260503183212 26 109 8.0 9.7 0.00 0.00 0.00 35 1021.7
20260503182710 25 93 1.6 1.6 0.00 0.00 0.00 34 1021.9
20260503182208 25 139 4.8 3.2 0.00 0.00 0.00 36 1022.0
20260503181704 25 85 9.7 12.9 0.00 0.00 0.00 33 1022.1
20260503181201 25 122 4.8 4.8 0.00 0.00 0.00 31 1022.4
20260503180658 25 122 6.4 9.7 0.00 0.00 0.00 34 1022.1
20260503180156 25 110 11.3 11.3 0.00 0.00 0.00 33 1022.3
20260503175653 25 92 4.8 4.8 0.00 0.00 0.00 39 1022.3
20260503175150 25 83 8.0 9.7 0.00 0.00 0.00 36 1022.2
20260503174646 25 97 8.0 14.5 0.00 0.00 0.00 36 1022.6
20260503174144 25 108 8.0 9.7 0.00 0.00 0.00 33 1022.7
20260503173639 25 9 1.6 1.6 0.00 0.00 0.00 37 1022.8
20260503173136 25 102 6.4 8.0 0.00 0.00 0.00 38 1022.9
20260503172632 25 113 9.7 11.3 0.00 0.00 0.00 36 1022.9
20260503172130 25 129 16.1 17.7 0.00 0.00 0.00 33 1023.1
20260503171626 25 2 3.2 3.2 0.00 0.00 0.00 36 1023.1
20260503171123 25 95 4.8 9.7 0.00 0.00 0.00 41 1023.1
20260503170621 25 120 12.9 14.5 0.00 0.00 0.00 36 1023.1
20260503170117 25 152 11.3 12.9 0.00 0.00 0.00 34 1022.9
20260503151012 23 89 8.0 8.0 0.00 0.00 0.00 55 1023.2
20260503150509 23 119 3.2 3.2 0.00 0.00 0.00 55 1023.0
20260503131402 17 32 1.6 1.6 0.00 0.00 0.00 89 1022.7
20260503130859 16 339 1.6 1.6 0.00 0.00 0.00 91 1022.6
20260503130356 16 340 0.0 1.6 0.00 0.00 0.00 92 1022.5